This is the latest recevied weather packets stored in our database for station/object OK2PAT-12. If no packets are shown the sender has not sent any weather packets the latest 10 day(s).
| Time | Temp. | Humidity | Pressure | Rain* | Wind** | Luminosity | Snow |
|---|---|---|---|---|---|---|---|
| 1788535358 | 26.11° C | 66% | 1013.2 hPa | - | - | - | - |
| 1788534758 | 26.11° C | 67% | 1013.4 hPa | - | - | - | - |
| 1788534158 | 26.11° C | 67% | 1013.7 hPa | - | - | - | - |
| 1788533558 | 26.11° C | 67% | 1013.8 hPa | - | - | - | - |
| 1788532355 | 26.11° C | 66% | 1014 hPa | - | - | - | - |
| 1788531755 | 26.11° C | 65% | 1014.3 hPa | - | - | - | - |
| 1788531155 | 26.11° C | 66% | 1014.3 hPa | - | - | - | - |
| 1788530555 | 26.11° C | 67% | 1014.3 hPa | - | - | - | - |
| 1788529955 | 26.11° C | 67% | 1014.3 hPa | - | - | - | - |
| 1788529355 | 25.56° C | 67% | 1014.4 hPa | - | - | - | - |
| 1788528755 | 26.11° C | 67% | 1014.5 hPa | - | - | - | - |
| 1788528155 | 26.11° C | 68% | 1014.6 hPa | - | - | - | - |
| 1788527555 | 26.67° C | 69% | 1014.8 hPa | - | - | - | - |
| 1788526955 | 26.67° C | 69% | 1015.1 hPa | - | - | - | - |
| 1788526363 | 26.67° C | 69% | 1015.3 hPa | - | - | - | - |
| 1788525755 | 26.67° C | 69% | 1015.4 hPa | - | - | - | - |
| 1788525155 | 26.11° C | 69% | 1015.4 hPa | - | - | - | - |
| 1788524565 | 26.11° C | 70% | 1015.6 hPa | - | - | - | - |
| 1788523955 | 26.11° C | 71% | 1015.8 hPa | - | - | - | - |
| 1788523355 | 25.56° C | 72% | 1015.9 hPa | - | - | - | - |
| 1788522153 | 25° C | 73% | 1016.5 hPa | - | - | - | - |
| 1788521553 | 25° C | 73% | 1016.6 hPa | - | - | - | - |
| 1788520953 | 25° C | 74% | 1016.6 hPa | - | - | - | - |
| 1788520353 | 24.44° C | 75% | 1016.9 hPa | - | - | - | - |
| 1788519753 | 23.89° C | 75% | 1017 hPa | - | - | - | - |
* Rain since midnight (hover to see other rain measurements)
** Current wind speed in m/s (hover to see current wind gust speed)